Weather History for Spirit of St Louis, MO

Change the Weather History Date:

Sunday, January 6, 2013

  Actual Average Record
Temperature  
Mean Temperature 31 °F -  
Max Temperature 41 °F 38 °F - (-1)
Min Temperature 21 °F 21 °F - (-1)
Degree Days  
Heating Degree Days 34    
Moisture  
Dew Point 22 °F    
Average Humidity 68    
Maximum Humidity 86    
Minimum Humidity 46    
Precipitation  
Precipitation 0.00 in - - ()
Sea Level Pressure  
Sea Level Pressure 30.27 in    
Wind  
Wind Speed 10 mph (WNW)    
Max Wind Speed 20 mph    
Max Gust Speed 26 mph    
Visibility 10 miles    
Events      
Averages and records for this station are not official NWS values.
T = Trace of Precipitation, MM = Missing Value Source: NWS Daily Summary

Daily Weather History Graph

Daily Weather History Graph

Search for Another Location

Airport:

Trip Planner

Search our weather history database for the weather conditions in past years. The results will help you decide how hot, cold, wet, or windy it might be!

Date:

Astronomy

Jan. 06, 2013 Rise Set
Actual Time 7:20 AM CST 4:56 PM CST
Civil Twilight 6:51 AM CST 5:26 PM CST
Nautical Twilight 6:18 AM CST 5:59 PM CST
Astronomical Twilight 5:46 AM CST 6:31 PM CST
Moon 1:36 AM CST (1/6) 12:22 PM CST (1/6)
Length of Visible Light 10h 34m
Length of Day
9h 35m
Waning Crescent, 33% of the Moon is Illuminated
Jan 6
Waning Crescent
Jan 11
New
Jan 18
First Quarter
Jan 26
Full
Feb 3
Last Quarter

Hourly Weather History & Observations

Time (CST) Temp. Windchill Dew Point Humidity Pressure Visibility Wind Dir Wind Speed Gust Speed Precip Events Conditions
12:54 AM 41.0 °F 33.9 °F 30.9 °F 67% 30.10 in 10.0 mi WSW 12.7 mph 21.9 mph N/A   Overcast
1:54 AM 39.0 °F 32.8 °F 30.0 °F 70% 30.11 in 10.0 mi West 9.2 mph 20.7 mph N/A   Scattered Clouds
2:54 AM 36.0 °F 29.0 °F 28.9 °F 76% 30.13 in 10.0 mi West 9.2 mph - N/A   Clear
3:54 AM 34.0 °F 28.0 °F 28.0 °F 79% 30.12 in 10.0 mi West 6.9 mph - N/A   Clear
4:54 AM 34.0 °F 27.2 °F 27.0 °F 75% 30.14 in 10.0 mi West 8.1 mph - N/A   Clear
5:32 AM 33.8 °F 27.0 °F 26.6 °F 75% 30.13 in 10.0 mi West 8.1 mph - N/A   Mostly Cloudy
5:54 AM 34.0 °F 25.0 °F 26.1 °F 73% 30.17 in 10.0 mi WNW 12.7 mph - N/A   Overcast
6:54 AM 32.0 °F 20.1 °F 21.9 °F 66% 30.20 in 10.0 mi WNW 19.6 mph 26.5 mph N/A   Overcast
7:54 AM 32.0 °F 23.0 °F 21.0 °F 64% 30.23 in 10.0 mi WNW 11.5 mph - N/A   Overcast
8:11 AM 32.0 °F 23.0 °F 21.2 °F 64% 30.21 in 10.0 mi West 11.5 mph - N/A   Overcast
8:54 AM 33.1 °F 24.4 °F 21.9 °F 64% 30.26 in 10.0 mi WNW 11.5 mph - N/A   Overcast
9:54 AM 33.1 °F 21.9 °F 21.9 °F 64% 30.29 in 10.0 mi WNW 18.4 mph - N/A   Overcast
10:54 AM 33.1 °F 23.4 °F 23.0 °F 66% 30.31 in 10.0 mi WNW 13.8 mph 21.9 mph N/A   Overcast
11:54 AM 34.0 °F 24.6 °F 21.9 °F 61% 30.30 in 10.0 mi WNW 13.8 mph 25.3 mph N/A   Mostly Cloudy
12:54 PM 35.1 °F 27.4 °F 21.9 °F 59% 30.29 in 10.0 mi West 10.4 mph - N/A   Clear
1:54 PM 37.0 °F 29.3 °F 21.0 °F 52% 30.31 in 10.0 mi NW 11.5 mph - N/A   Clear
2:54 PM 37.0 °F 29.3 °F 18.0 °F 46% 30.32 in 10.0 mi WNW 11.5 mph 20.7 mph N/A   Clear
3:54 PM 37.0 °F 30.4 °F 18.0 °F 46% 30.35 in 10.0 mi NNW 9.2 mph - N/A   Clear
4:54 PM 30.9 °F 25.2 °F 19.0 °F 61% 30.37 in 10.0 mi NW 5.8 mph - N/A   Clear
5:54 PM 28.0 °F - 19.0 °F 69% 30.38 in 10.0 mi Calm Calm - N/A   Clear
6:54 PM 27.0 °F - 19.0 °F 72% 30.40 in 10.0 mi Calm Calm - N/A   Clear
7:54 PM 25.0 °F - 18.0 °F 75% 30.40 in 10.0 mi Calm Calm - N/A   Clear
8:54 PM 24.1 °F - 18.0 °F 77% 30.40 in 10.0 mi Calm Calm - N/A   Clear
9:54 PM 21.2 °F - 17.6 °F 86% 30.37 in 10.0 mi Calm Calm - N/A   Clear
10:54 PM 21.0 °F - 17.1 °F 85% 30.42 in 10.0 mi Calm Calm - N/A   Clear
11:54 PM 21.0 °F - 17.1 °F 85% 30.42 in 10.0 mi Calm Calm - N/A   Clear